Location: *
(49.9500°N, 11.1667°E)
Time: 20:08:02
(UTC+00:00)

Daily predictions for brighter satellites

Satellite Brightness Start Highest point End
(mag) Time Altitude Azimuth Time Altitude Azimuth Time Altitude Azimuth
Unknown 3.9 16:41:00 10° W 16:45:08 63° N 16:49:15 10° ENE
SJ 16-02 3.4 16:45:06 10° NNE 16:46:20 11° NE 16:47:32 10° ENE
ATLAS CENTAUR R/B 3.8 16:47:42 10° NNW 16:50:01 13° N 16:52:15 10° NNE
ATLAS 5 CENTAUR R/B 2.7 16:46:18 10° WSW 16:50:32 44° NW 16:55:21 10° NE
FALCON 9 DEB 3.1 16:47:11 10° WNW 16:50:40 79° NNE 16:54:09 10° ESE
CZ-4 R/B 2.0 16:46:47 10° SE 16:50:42 39° ENE 16:54:40 10° N
Unknown 3.9 16:47:41 10° W 16:51:49 61° N 16:55:56 10° ENE
CENTAUR R/B 4.2 16:52:45 10° ESE 16:53:21 10° E 16:53:57 10° E
Unknown 3.9 16:49:24 10° W 16:53:31 60° N 16:57:37 10° ENE
Cosmos 2084 Rocket 4.1 16:50:37 10° NW 16:54:51 41° NE 16:59:01 10° ESE
COSMO-SKYMED 1 3.2 16:51:09 10° NNE 16:55:08 34° E 16:59:06 10° SSE
Unknown 3.9 16:51:02 10° W 16:55:08 60° N 16:59:14 10° ENE
Gbstr 26 Del rocket 4.1 16:50:34 10° WNW 16:56:16 78° SSW 17:03:20 10° ESE
Unknown 3.9 16:52:42 10° W 16:56:48 59° N 17:00:50 10° ENE
Unknown 4.0 16:54:21 10° W 16:58:28 59° N 17:02:25 11° ENE
Meteor 1-16 Rocket 4.1 16:54:21 10° S 16:59:49 72° E 17:05:11 10° NNE
Envisat 3.0 16:55:30 10° SSE 17:00:33 71° ENE 17:05:38 10° N
Unknown 4.0 16:57:41 10° W 17:01:47 58° N 17:05:37 12° ENE
Cosmos 1726 2.1 16:58:21 10° S 17:01:57 59° E 17:05:34 10° NNE
Unknown 3.6 16:58:26 10° WNW 17:02:08 57° N 17:05:26 13° E
Cosmos 1908 3.6 16:58:52 10° SSE 17:02:32 41° E 17:06:13 10° NNE
Cosmos 1953 Rocket 4.2 16:58:17 10° NNW 17:02:37 61° W 17:06:52 10° S
Cosmos 2278 Rocket 2.6 16:57:45 10° S 17:03:05 44° ESE 17:08:27 10° NE
Starlink (trailer) 4.0 16:59:21 10° W 17:03:27 58° N 17:07:12 12° ENE
EO 1 Delta rocket 4.3 16:59:39 10° SE 17:04:01 42° ENE 17:08:55 10° N
H-2A R/B 3.9 17:02:20 10° ENE 17:04:33 13° NE 17:06:53 10° NNE
Okean-O 3.0 17:00:10 10° S 17:04:34 72° WSW 17:09:02 10° NNW
Unknown 4.0 17:01:04 10° W 17:05:09 58° N 17:08:50 13° ENE
Falcon 9 debris 3.1 17:02:01 10° WNW 17:05:29 83° SSW 17:08:54 10° ESE
Unknown 3.1 17:02:19 10° WNW 17:05:51 84° NNE 17:09:07 12° ESE
BREEZE-M DEB (TANK) 4.2 17:02:24 10° SSW 17:06:24 22° SSE 17:08:20 12° ESE
Unknown 4.0 17:02:43 10° W 17:06:49 57° N 17:10:26 13° ENE
Meteor 1-11 4.3 17:02:04 10° N 17:07:51 73° ENE 17:13:39 10° SSE
Cosmos 1605 Rocket 4.0 17:02:58 10° N 17:09:08 64° ENE 17:15:11 10° SSE
FengYun 1-2 T 4.2 17:03:49 10° SSE 17:09:24 70° ENE 17:14:59 10° N
Cosmos 1356 3.3 17:06:50 10° S 17:10:14 77° ESE 17:13:43 10° NNE
Cosmos 1844 4.2 17:04:34 10° SW 17:10:17 64° WNW 17:16:04 10° NNE
Unknown 4.0 17:07:27 10° W 17:11:32 56° N 17:14:55 14° ENE
Cosmos 1953 3.7 17:07:54 10° SSW 17:11:48 44° WNW 17:15:43 10° N
Cosmos 1934 Rocket 4.1 17:05:44 10° N 17:12:06 85° W 17:18:29 10° S
Unknown 4.0 17:09:23 10° W 17:13:29 56° N 17:16:48 15° ENE
Cosmos 1606 Rocket 4.5 17:10:31 10° SSW 17:14:47 51° WNW 17:19:02 10° N
Unknown 4.0 17:11:14 10° W 17:15:20 56° N 17:18:36 16° ENE
CSL-04 Rocket 3.7 17:10:20 10° SSE 17:15:46 62° ENE 17:21:10 10° N
Unknown 4.0 17:12:42 10° W 17:16:49 56° N 17:20:02 16° ENE
USA 238 DEB 4.1 17:11:50 10° S 17:18:00 41° ESE 17:24:22 10° NE
USA 238 4.1 17:11:58 10° S 17:18:06 40° ESE 17:24:27 10° NE
Unknown 4.0 17:14:25 10° W 17:18:30 56° N 17:21:36 17° ENE
COBE Rocket 3.9 17:14:04 10° NNE 17:19:16 79° ESE 17:24:20 10° S
Unknown 4.0 17:16:12 10° W 17:20:17 55° N 17:23:18 17° ENE
Meteor 2-10 3.9 17:16:20 10° S 17:21:22 84° ESE 17:26:27 10° NNE
Cosmos 1076 Rocket 4.0 17:18:17 10° N 17:22:22 37° ENE 17:26:24 10° SE
CZ-4 R/B 4.4 17:18:27 10° SSE 17:22:34 84° ENE 17:26:44 10° NNW
Unknown 4.0 17:19:31 10° W 17:23:37 55° N 17:26:30 18° ENE
Unknown 4.0 17:19:36 10° W 17:23:41 55° N 17:26:34 18° ENE
Cosmos 1727 Rocket 4.2 17:18:07 10° SSE 17:23:55 45° E 17:29:45 10° NNE
Unknown 4.0 17:21:04 10° W 17:25:09 55° N 17:27:58 19° ENE
Cosmos 2173 Rocket 4.5 17:20:47 10° N 17:26:32 37° ENE 17:32:12 10° SE
Unknown 3.3 17:24:02 10° WNW 17:27:32 71° SSW 17:30:03 18° SE
Unknown 4.0 17:24:19 10° W 17:28:24 55° N 17:31:05 20° ENE
Cosmos 44 4.5 17:26:48 10° SSE 17:30:25 21° ESE 17:31:18 20° E
YAOGAN 6 2.6 17:28:01 10° SSE 17:31:41 84° WSW 17:35:19 10° NNW
Unknown 4.0 17:27:45 10° W 17:31:50 55° N 17:34:22 22° ENE
Cosmos 1892 4.4 17:30:04 10° NNE 17:31:54 16° NE 17:31:54 16° NE
Cosmos 292 Rocket 4.1 17:28:15 10° SSW 17:32:59 69° WNW 17:37:45 10° NNE
NOAA 11 4.3 17:27:59 10° SE 17:33:15 53° ENE 17:38:32 10° N
Cosmos 2058 3.5 17:29:36 10° N 17:33:30 34° ENE 17:36:43 14° SE
Unknown 4.0 17:29:27 10° W 17:33:31 55° N 17:35:58 22° ENE
Cosmos 1833 Rocket 2.8 17:28:01 10° NNW 17:33:40 79° WSW 17:39:17 10° SSE
Unknown 4.0 17:31:07 10° W 17:35:12 55° N 17:37:34 23° ENE
Unknown 3.6 17:31:27 10° WNW 17:35:16 61° NNE 17:37:14 26° E
Cosmos 1812 Rocket 3.8 17:31:07 10° SSE 17:35:21 45° E 17:39:37 10° NNE
Unknown 4.0 17:32:47 10° W 17:36:53 55° N 17:39:11 24° ENE
Unknown 4.0 17:36:08 10° WNW 17:40:14 55° N 17:42:23 25° ENE
NOSS 3-2 (A) 3.7 17:35:38 10° S 17:41:06 45° ESE 17:46:23 14° NE
Unknown 4.0 17:37:51 10° WNW 17:41:57 55° N 17:44:02 26° ENE
Ariane Rocket 3.1 17:38:17 10° SE 17:43:14 53° ENE 17:48:12 10° N
SKYMED 2 3.6 17:38:58 10° NNE 17:43:20 82° WNW 17:47:40 10° SSW
Unknown 4.0 17:39:27 10° WNW 17:43:32 55° N 17:45:33 27° ENE
Cosmos 2151 4.1 17:40:33 10° NNE 17:44:07 25° ENE 17:44:07 25° ENE
Unknown 4.0 17:41:04 10° WNW 17:45:09 55° N 17:47:06 28° ENE
YAOGAN 1 2.7 17:41:33 10° S 17:45:52 78° WSW 17:50:14 10° NNW
Unknown 4.0 17:42:50 10° WNW 17:46:56 55° N 17:48:48 29° ENE
Unknown 4.0 17:44:15 10° WNW 17:48:20 55° N 17:50:10 29° ENE
Unknown 4.0 17:47:36 10° WNW 17:51:41 55° N 17:53:22 32° ENE
IRS-1A Rocket 4.2 17:47:54 10° SE 17:53:16 58° ENE 17:58:42 10° N
Unknown 4.0 17:49:16 10° WNW 17:53:21 55° N 17:54:58 33° ENE
Cosmos 1300 2.7 17:50:14 10° S 17:53:56 51° E 17:57:40 10° NNE
Cosmos 2100 Rocket 4.0 17:48:02 10° N 17:54:10 59° ENE 18:00:13 10° SSE
Cosmos 1939 Rocket 2.7 17:50:36 10° SSE 17:54:35 71° ENE 17:58:40 10° N
HJ-1C 3.6 17:54:54 45° E 17:55:03 45° ENE 17:58:18 10° N
Unknown 3.9 17:51:09 10° WNW 17:55:15 56° N 17:56:46 34° ENE
Unknown 4.0 17:52:37 10° WNW 17:56:42 55° N 17:58:10 35° ENE
Unknown 3.5 17:52:56 10° WNW 17:56:50 66° NNE 17:57:58 42° E
CZ-2C R/B 4.5 17:57:05 22° ENE 17:57:22 22° ENE 18:01:40 10° N
Abrixas rocket 2.2 17:54:23 10° WSW 17:57:24 54° S 17:57:37 53° SSE
Cosmos 1937 Rocket 3.9 17:52:44 10° NNW 17:57:36 41° ENE 17:59:13 32° E
CZ-2D R/B 3.1 17:53:56 10° SSE 17:57:47 85° ENE 18:01:42 10° NNW
Cosmos 990 Rocket 4.1 17:53:06 10° NNW 17:58:12 52° ENE 18:00:41 28° ESE
Unknown 3.9 17:54:14 10° WNW 17:58:19 55° N 17:59:43 36° ENE
Unknown 3.9 17:57:37 10° WNW 18:01:43 56° N 18:02:58 39° ENE
Unknown 3.9 17:59:15 10° WNW 18:03:22 56° N 18:04:32 40° ENE
ADEOS Rocket 4.1 17:57:16 10° NNE 18:03:52 31° E 18:07:28 21° SE
Cosmos 2082 Rocket 2.5 17:58:51 10° NNW 18:04:32 67° WSW 18:10:09 10° SSE
Unknown 3.9 18:00:57 10° WNW 18:05:02 56° N 18:06:09 41° ENE
Unknown 3.7 18:02:29 10° WNW 18:06:30 60° N 18:07:24 46° ENE
BREEZE-M DEB (TANK) 4.4 18:01:57 10° WNW 18:06:34 59° SSW 18:18:49 13° SE
Unknown 3.9 18:02:35 10° WNW 18:06:41 56° N 18:07:43 43° ENE
NOSS 3-2 (C) 3.7 18:01:23 10° S 18:06:51 44° ESE 18:09:34 29° ENE
USA 116 3.7 18:06:19 10° N 18:09:29 61° WNW 18:12:53 10° SSW
Unknown 3.9 18:06:00 10° WNW 18:10:05 57° N 18:10:59 46° NE
Unknown 3.9 18:07:03 10° WNW 18:11:09 57° N 18:11:59 47° NE
Cosmos 2016 Rocket 4.1 18:05:21 10° N 18:11:30 53° ENE 18:15:24 23° SE
Unknown 3.8 18:07:47 10° WNW 18:11:54 58° N 18:12:41 48° NE
Unknown 3.8 18:09:05 10° WNW 18:13:09 59° N 18:13:50 50° NE
Unknown 3.8 18:09:30 10° WNW 18:13:36 59° N 18:14:20 50° NE
Unknown 3.8 18:12:38 10° WNW 18:16:45 58° N 18:17:21 52° NE
Unknown 3.8 18:15:58 10° WNW 18:20:04 59° N 18:20:32 55° NE
Unknown 3.8 18:17:37 10° WNW 18:21:45 59° N 18:22:08 56° NE
Unknown 3.7 18:19:16 10° WNW 18:23:23 60° N 18:23:42 57° NNE
Lacrosse 5 3.0 18:19:52 10° WNW 18:24:32 38° SW 18:27:31 20° S
Meteor 2-1 Rocket 4.0 18:19:29 10° S 18:24:58 70° E 18:30:33 10° NNE
Unknown 3.7 18:20:56 10° WNW 18:25:03 60° N 18:25:18 59° NNE
SL-27 R/B 4.4 18:22:31 10° N 18:23:39 18° N 18:23:39 18° N
CZ-4 R/B 3.8 18:22:22 10° SSW 18:25:50 25° W 18:29:21 10° NW
SJ 16-02 1.3 18:21:31 10° NNW 18:25:45 60° NE 18:25:45 60° NE
SPOT 3 Rocket 3.6 18:26:38 50° E 18:27:02 52° ENE 18:32:06 10° N
In-Cosmos 22 Rocket 4.1 18:22:39 10° NNW 18:28:05 88° W 18:32:45 15° S
ATLAS CENTAUR R/B 3.1 18:26:53 10° NNW 18:30:12 23° NNE 18:30:12 23° NNE
Unknown 3.8 18:27:36 10° WNW 18:31:42 62° N 18:31:42 62° N
Unknown 3.8 18:29:19 10° WNW 18:33:20 62° N 18:33:20 62° N
ATLAS 3B R/B 2.7 18:28:06 10° SSW 18:34:30 48° ESE 18:35:04 47° ESE
Unknown 3.8 18:30:56 10° WNW 18:34:53 62° N 18:34:53 62° N
ATLAS 5 CENTAUR R/B 3.9 18:32:55 10° WNW 18:36:29 20° N 18:39:02 15° NNE
Unknown 3.8 18:32:36 10° WNW 18:36:29 62° N 18:36:29 62° N
Unknown 3.9 18:34:15 10° WNW 18:38:04 61° NNW 18:38:04 61° NNW
Unknown 4.1 18:36:33 10° WNW 18:39:39 50° WSW 18:39:39 50° WSW
Unknown 4.0 18:37:34 10° WNW 18:41:16 60° NNW 18:41:16 60° NNW
CENTAUR R/B 2.5 18:36:19 10° SSW 18:42:10 55° ESE 18:42:36 54° ESE
H-2A R/B 2.1 18:42:58 61° ENE 18:42:58 61° ENE 18:48:17 10° N
Starlink (trailer) 4.0 18:39:14 10° WNW 18:42:51 59° NNW 18:42:51 59° NNW
Cosmos 1459 Rocket 4.2 18:37:36 10° NNW 18:43:48 70° W 18:50:04 10° S
Unknown 4.1 18:40:56 10° WNW 18:44:29 57° NW 18:44:29 57° NW
Cosmos 2061 Rocket 3.9 18:39:13 10° N 18:45:30 88° W 18:49:21 25° S
Unknown 4.1 18:42:35 10° WNW 18:46:04 56° NW 18:46:04 56° NW
Cosmos 2278 Rocket 3.5 18:41:56 10° WSW 18:47:15 39° NW 18:52:36 10° NNE
SJ-11-01 4.3 18:46:46 66° SSW 18:47:22 79° WSW 18:52:05 10° NNW
Cosmos 1898 Rocket 3.8 18:42:50 10° NNW 18:48:05 64° WSW 18:50:02 38° S
Cosmos 1766 Rocket 3.9 18:45:03 10° N 18:48:34 58° NNW 18:48:34 58° NNW
Cosmos 2297 3.6 18:45:05 10° SSW 18:50:48 90° ESE 18:53:21 35° NNE
Unknown 4.3 18:47:15 10° WNW 18:50:31 51° NW 18:50:31 51° NW
Unknown 4.4 18:49:14 10° WNW 18:52:27 50° NW 18:52:27 50° NW
Unknown 4.4 18:51:07 10° WNW 18:54:17 49° NW 18:54:17 49° NW
Unknown 4.5 18:52:32 10° WNW 18:55:40 48° NW 18:55:40 48° NW
Okean 3 Rocket 4.3 18:55:11 10° NNW 18:59:36 53° W 19:00:14 48° SW
Resurs 01 Rocket 3.7 19:06:07 18° N 19:06:07 18° N 19:07:24 10° N
ARGOS 3.2 19:05:12 72° N 19:05:12 72° N 19:10:08 10° NNW
USA 238 DEB 4.1 19:02:04 10° WSW 19:08:45 60° NW 19:12:35 27° NNE
USA 238 4.1 19:02:10 10° WSW 19:08:50 61° NW 19:12:37 28° NNE
Cosmos 44 4.1 19:06:20 10° SW 19:09:47 44° WSW 19:09:47 44° WSW
Cosmos 2123 Rocket 4.1 19:24:50 50° SSW 19:26:31 73° W 19:32:48 10° N
NOSS 3-2 (A) 4.1 19:26:02 10° WSW 19:31:54 52° NW 19:33:48 40° NNE
Cosmos 2233 Rocket 4.2 19:27:23 10° NNW 19:32:56 69° NNW 19:32:56 69° NNW
CZ-2C R/B 3.9 19:38:10 51° NNW 19:38:10 51° NNW 19:42:25 10° NNW
Cosmos 2227 Rocket 4.4 19:41:44 10° N 19:43:33 15° N 19:43:33 15° N
ADEOS Rocket 3.7 19:42:17 10° NNE 19:49:57 69° WNW 19:54:17 26° SW
Cosmos 2297 Rocket 4.4 19:46:26 10° N 19:48:12 15° N 19:48:12 15° N
NOSS 3-2 (C) 4.2 19:51:49 10° WSW 19:57:05 50° NW 19:57:05 50° NW
SJ 16-02 4.1 20:01:11 10° NW 20:02:45 15° WNW 20:02:45 15° WNW
ATLAS CENTAUR R/B 4.4 20:05:40 10° NW 20:06:23 14° NW 20:06:23 14° NW
H-2A R/B 4.2 20:23:36 23° WNW 20:23:36 23° WNW 20:27:03 10° NW
ATLAS 5 CENTAUR R/B 4.5 20:18:56 10° NW 20:20:34 17° NNW 20:20:34 17° NNW
ATLAS 3B R/B 4.0 20:18:42 10° WSW 20:22:24 32° W 20:22:24 32° W
CENTAUR R/B 4.1 20:26:54 10° WSW 20:29:52 28° W 20:29:52 28° W
